Snowfall_Accumulation
0.0 0.0 0.0 0.0 0.0 0.0 0.0 0.0 0.0 0.0 0.0 0.0 0.0 0.0 0.0 0.0 0.0 0.0 0.0 0.0 0.0 0.0 0.0 0.0 0.0 0.0 0.0 0.0 0.0 0.0 0.0 0.0 0.2 0.0 0.0 0.0 0.0 0.0 0.0 0.0 0.0 0.0 0.0
0.0 0.0 0.0 0.0 0.0 0.0 0.0 0.0 0.0 0.0 0.0 0.0 0.0 0.0 0.0 0.0 0.0 0.0 0.0 0.0 0.0 0.0 0.0 0.0 0.0 0.0 0.0 0.0 0.0 0.0 0.0 0.0 0.1 0.1 0.0 0.0 0.0 0.0 0.0 0.1 0.0 0.0 0.3
0.0 0.0 0.0 0.0 0.0 0.0 0.0 0.0 0.0 0.0 0.0 0.0 0.0 0.0 0.0 0.0 0.0 0.0 0.0 0.0 0.0 0.0 0.0 0.0 0.0 0.0 0.1 0.1 0.0 0.0 0.0 0.0 0.0 0.4 0.5 0.4 0.4 0.4 0.5 0.3 0.2 0.2 0.1
0.0 0.0 0.0 0.0 0.0 0.0 0.0 0.0 0.0 0.0 0.0 0.0 0.0 0.0 0.0 0.0 0.0 0.0 0.0 0.0 0.0 0.0 0.0 0.0 0.0 0.0 0.1 0.1 0.1 0.1 0.1 0.5 0.5 0.7 0.7 0.6 0.7 0.8 0.9 1.1 1.4 0.9 1.2
0.0 0.0 0.0 0.0 0.0 0.0 0.0 0.1 0.1 0.1 0.0 0.0 0.0 0.1 0.0 0.0 0.0 0.0 0.0 0.1 0.1 0.0 0.1 0.1 0.0 0.0 nan nan 0.3 0.2 0.2 0.5 1.3 1.6 1.2 1.1 1.1 1.3 1.4 1.1 2.4 1.7 1.7
0.0 0.0 0.0 0.1 0.1 0.1 0.2 0.1 0.1 0.1 0.1 0.1 0.1 0.1 0.1 0.0 nan nan 0.1 0.1 0.1 0.1 0.1 0.1 0.1 0.1 0.1 nan nan nan nan 0.5 4.1 4.5 1.3 1.2 0.5 1.2 1.7 2.3 3.0 3.9 4.3
0.1 0.2 0.2 0.2 0.2 0.2 0.2 0.2 0.2 0.2 0.2 0.2 0.2 0.2 0.2 0.2 nan nan nan 0.2 0.1 0.1 0.1 0.1 0.2 0.1 0.2 0.1 nan nan nan nan nan 0.3 1.2 1.1 2.1 1.7 2.6 3.6 2.4 3.2 3.4
0.2 0.5 0.5 0.3 0.8 0.3 0.3 0.4 0.3 0.2 0.3 0.3 0.3 0.3 0.3 0.2 nan nan nan 0.1 0.1 0.1 0.1 0.2 0.2 0.3 0.3 0.4 0.4 0.7 0.5 0.5 0.4 0.4 1.0 1.3 1.5 1.6 1.7 1.8 3.0 4.7 4.1
0.1 0.2 0.3 0.5 1.3 0.6 2.2 0.7 0.5 1.0 0.8 1.4 1.1 2.4 1.9 1.5 nan nan 0.2 0.5 0.5 0.5 0.2 0.3 0.4 0.6 nan nan 1.6 3.8 2.9 2.2 nan nan nan nan nan nan nan 7.8 18.0 21.0 12.3
0.1 0.1 0.2 0.6 2.6 2.1 0.7 1.5 1.8 1.9 1.9 2.6 2.2 2.1 1.0 3.7 nan nan nan 2.8 4.3 2.7 1.3 0.6 1.0 0.6 nan nan 2.4 4.9 8.2 4.4 4.2 5.2 3.0 1.5 nan nan nan 3.5 7.6 19.9 12.0
0.7 0.7 1.0 0.9 3.1 1.4 1.7 1.2 2.5 3.6 2.2 3.9 3.8 2.8 3.4 2.0 1.9 nan nan 2.1 4.0 5.6 5.2 3.6 2.1 nan nan nan nan 5.3 6.1 4.4 7.9 7.1 6.4 6.1 5.3 4.6 4.2 3.6 2.8 4.5 9.1
1.6 1.8 2.4 4.0 3.2 3.2 7.2 4.2 5.7 5.2 5.8 5.1 5.5 4.3 3.6 2.1 nan nan nan nan nan 8.3 5.0 2.5 2.5 nan nan nan 2.9 nan nan 3.5 10.6 11.3 9.8 8.2 6.1 5.9 5.0 5.0 3.8 3.7 3.7
4.9 6.9 6.8 5.7 5.9 5.9 8.7 6.3 7.1 6.0 7.5 4.8 6.6 6.5 5.0 4.3 4.4 nan nan nan nan 4.3 3.1 2.5 nan nan nan nan nan nan 2.4 8.2 10.8 12.9 9.9 6.9 4.8 4.5 4.2 4.9 4.0 4.0 3.7
9.1 5.1 4.1 5.5 3.8 4.8 5.8 6.2 10.0 8.2 7.5 8.4 9.9 9.7 6.8 6.2 4.0 3.8 6.2 4.1 2.7 5.4 nan 4.3 nan 3.4 nan nan 4.0 3.9 5.7 6.4 7.0 8.3 8.2 5.6 5.4 6.5 6.9 5.1 7.0 6.2 9.7
6.6 3.7 4.2 5.9 6.7 4.7 4.5 6.8 6.6 4.3 8.7 15.7 17.6 13.5 14.3 12.6 8.0 4.0 10.1 10.5 8.9 9.3 7.6 12.6 10.3 6.9 7.0 6.1 7.9 7.5 7.0 7.7 9.1 9.2 9.9 9.3 8.6 8.0 7.8 6.2 6.5 8.4 10.7
4.0 5.7 5.5 5.4 4.5 4.2 4.6 5.0 nan nan nan nan nan 9.4 10.6 nan nan nan nan nan nan nan 18.0 21.0 11.9 9.3 7.5 7.6 9.5 9.6 8.6 7.8 8.8 9.7 10.6 10.4 10.7 8.9 9.1 9.8 9.3 10.3 11.1
7.1 4.9 6.2 4.9 5.5 6.2 6.6 7.5 8.8 6.7 nan nan nan nan nan nan nan nan nan nan nan nan 30.9 17.8 15.1 10.9 10.4 8.8 10.3 9.7 9.7 8.2 6.2 9.0 8.7 9.4 10.3 10.9 10.6 9.9 9.0 8.5 12.1
7.0 2.1 7.6 7.5 7.3 7.8 8.3 8.7 9.1 10.6 11.9 9.8 nan nan nan nan nan nan nan nan 26.5 nan 24.3 24.5 21.5 17.8 14.5 13.3 11.4 11.0 11.1 10.4 9.6 10.5 10.7 14.0 15.4 16.0 14.5 14.1 10.7 13.3 13.0
7.6 6.5 7.2 7.4 7.2 7.5 8.5 7.8 8.5 8.5 8.8 10.9 10.7 10.9 5.9 nan nan nan nan 18.9 24.5 22.4 22.6 23.4 20.3 18.9 15.5 16.3 15.4 16.9 15.0 15.3 14.4 18.7 18.8 19.8 17.8 18.3 17.8 13.0 10.4 6.4 7.5
8.2 3.4 6.4 10.7 9.9 9.0 6.8 8.4 7.8 8.3 9.3 10.4 10.6 9.5 15.8 15.7 21.9 22.8 19.9 26.0 26.1 23.8 21.2 23.2 23.6 25.1 25.4 23.6 23.0 21.4 21.5 22.4 20.6 21.4 21.2 20.0 18.5 19.2 13.4 17.5 15.1 12.9 14.1
14.3 12.1 2.7 10.7 13.0 13.2 13.6 11.6 9.6 12.7 11.2 12.7 9.9 9.3 nan 16.7 18.0 19.7 22.7 21.3 24.4 26.0 21.9 23.6 24.8 30.5 31.1 33.3 28.3 27.2 25.8 16.9 20.9 22.8 24.0 24.0 23.1 27.4 17.1 11.5 15.9 16.8 16.4
15.6 16.1 16.1 17.4 12.7 13.3 15.1 11.0 12.0 12.1 11.7 10.7 8.7 8.9 nan 11.1 13.8 14.5 16.2 20.7 25.0 25.5 28.6 32.9 32.3 34.7 30.8 28.4 26.1 24.1 20.6 24.1 25.8 24.7 20.9 21.9 25.0 21.7 20.6 14.4 14.8 12.9 16.5
14.3 13.0 13.6 13.7 13.3 6.6 14.7 16.7 15.0 14.3 13.2 14.2 12.5 12.9 14.9 17.6 15.5 15.2 22.0 25.0 20.3 19.2 21.4 22.6 21.2 21.1 19.7 22.5 20.0 19.4 21.0 23.8 24.9 30.9 22.6 23.4 23.0 25.7 22.5 19.6 17.1 18.3 16.9
13.5 13.6 13.2 17.0 15.3 13.1 15.3 16.4 14.5 6.3 14.7 15.8 24.3 19.4 11.9 15.7 22.1 16.6 17.6 20.7 17.1 28.0 20.4 22.0 18.3 17.8 19.3 28.3 34.6 34.0 36.1 37.6 36.6 33.9 31.0 22.6 22.7 18.7 19.3 20.9 16.4 14.7 12.9
16.4 14.2 14.3 13.3 19.6 16.1 15.2 18.0 13.2 17.6 20.6 16.1 19.5 14.8 15.7 14.6 15.4 21.7 20.3 16.7 18.6 17.0 14.8 14.7 15.4 15.9 16.1 17.1 23.5 29.3 28.7 4.3 19.3 4.7 27.9 20.6 24.6 25.4 24.3 20.0 18.3 15.4 12.7
13.8 15.0 15.5 16.0 15.1 16.0 16.5 16.2 16.9 13.9 17.5 18.6 17.2 17.4 14.9 14.8 14.9 17.6 16.5 16.5 13.3 13.8 14.2 15.7 15.7 13.8 12.9 14.8 15.9 6.7 4.1 3.6 23.3 4.0 22.8 19.1 22.3 21.6 21.5 21.5 19.8 17.9 14.4
Water_Equivalent
0.00 0.00 0.00 0.00 0.00 0.00 0.00 0.00 0.00 0.00 0.00 0.00 0.00 0.00 0.00 0.00 0.00 0.00 0.00 0.00 0.00 0.00 0.00 0.00 0.00 0.00 0.00 0.00 0.00 0.00 0.00 0.00 0.07 0.00 0.00 0.00 0.01 0.01 0.00 0.01 0.00 0.01 0.01
0.00 0.00 0.00 0.00 0.00 0.00 0.00 0.00 0.00 0.00 0.00 0.00 0.00 0.00 0.00 0.00 0.00 0.00 0.00 0.00 0.00 0.00 0.00 0.00 0.00 0.00 0.01 0.00 0.00 0.00 0.00 0.00 0.02 0.02 0.00 0.01 0.01 0.01 0.02 0.03 0.00 0.00 0.10
0.00 0.00 0.00 0.00 0.00 0.00 0.00 0.00 0.00 0.00 0.00 0.00 0.00 0.00 0.00 0.00 0.00 0.00 0.00 0.00 0.00 0.00 0.00 0.00 0.00 0.01 0.02 0.04 0.01 0.01 0.01 0.01 0.01 0.11 0.11 0.09 0.10 0.11 0.14 0.08 0.05 0.06 0.02
0.00 0.00 0.00 0.00 0.00 0.00 0.00 0.00 0.00 0.00 0.00 0.00 0.00 0.00 0.00 0.00 0.00 0.01 0.00 0.00 0.00 0.00 0.00 0.01 0.01 0.01 0.02 0.02 0.02 0.02 0.03 0.13 0.14 0.18 0.18 0.15 0.16 0.18 0.22 0.22 0.26 0.20 0.26
0.00 0.00 0.00 0.00 0.00 0.00 0.01 0.02 0.02 0.02 0.00 0.00 0.00 0.01 0.01 0.01 0.00 0.01 0.01 0.02 0.02 0.01 0.02 0.02 0.02 0.00 nan nan 0.08 0.06 0.06 0.14 0.33 0.38 0.26 0.21 0.20 0.21 0.21 0.19 0.42 0.33 0.30
0.00 0.00 0.00 0.02 0.03 0.04 0.04 0.03 0.03 0.03 0.02 0.03 0.03 0.03 0.03 0.00 nan nan 0.02 0.02 0.03 0.03 0.03 0.03 0.03 0.03 0.03 nan nan nan nan 0.11 0.79 0.87 0.27 0.20 0.09 0.22 0.30 0.37 0.49 0.55 0.53
0.03 0.05 0.05 0.04 0.05 0.04 0.04 0.04 0.03 0.03 0.03 0.03 0.04 0.03 0.04 0.04 nan nan nan 0.05 0.04 0.02 0.03 0.04 0.05 0.04 0.07 0.04 nan nan nan nan nan 0.07 0.22 0.21 0.35 0.30 0.46 0.53 0.35 0.49 0.54
0.04 0.09 0.08 0.05 0.12 0.05 0.05 0.06 0.04 0.04 0.05 0.04 0.05 0.05 0.05 0.04 nan nan nan 0.03 0.03 0.04 0.04 0.05 0.06 0.08 0.08 0.12 0.11 0.17 0.13 0.12 0.10 0.10 0.21 0.27 0.32 0.32 0.33 0.32 0.50 0.76 0.65
0.02 0.04 0.05 0.08 0.19 0.09 0.28 0.10 0.07 0.14 0.10 0.18 0.16 0.34 0.27 0.24 nan nan 0.05 0.11 0.09 0.09 0.05 0.07 0.10 0.11 nan nan 0.28 0.56 0.46 0.39 nan nan nan nan nan nan nan 1.45 2.64 2.88 1.62
0.03 0.03 0.04 0.09 0.34 0.26 0.10 0.20 0.25 0.26 0.24 0.37 0.30 0.30 0.21 0.52 nan nan nan 0.63 0.69 0.46 0.22 0.12 0.32 0.14 nan nan 0.45 0.75 1.08 0.65 0.73 0.92 0.55 0.31 nan nan nan 0.59 1.24 2.60 1.56
0.10 0.10 0.13 0.12 0.38 0.19 0.23 0.18 0.36 0.45 0.28 0.50 0.49 0.39 0.48 0.34 0.30 nan nan 0.38 0.66 0.89 0.85 0.59 0.37 nan nan nan nan 0.84 0.93 0.77 1.29 1.10 1.00 0.97 0.87 0.78 0.71 0.60 0.45 0.72 1.30
0.20 0.21 0.27 0.47 0.40 0.41 0.87 0.54 0.74 0.67 0.70 0.62 0.66 0.58 0.52 0.29 nan nan nan nan nan 1.41 0.78 0.40 0.41 nan nan nan 0.71 nan nan 0.84 1.78 1.72 1.44 1.15 0.86 0.82 0.71 0.68 0.48 0.48 0.48
0.50 0.73 0.72 0.66 0.68 0.70 1.03 0.68 0.93 0.78 0.90 0.56 0.79 0.77 0.61 0.60 0.66 nan nan nan nan 0.77 0.55 0.41 nan nan nan nan nan nan 0.78 1.36 1.63 1.76 1.23 0.85 0.61 0.57 0.51 0.57 0.47 0.45 0.40
1.01 0.53 0.41 0.57 0.47 0.56 0.74 0.86 1.27 1.00 0.86 0.97 1.13 1.08 0.75 0.70 0.51 0.56 1.04 0.81 0.66 0.92 nan 0.75 nan 0.60 nan nan 0.77 0.68 0.92 0.99 1.01 1.11 0.99 0.69 0.67 0.78 0.81 0.61 0.82 0.74 1.19
0.67 0.35 0.48 0.71 0.81 0.51 0.49 0.81 0.72 0.52 1.05 1.74 2.07 1.49 1.53 1.40 1.00 0.56 1.45 1.61 1.52 1.49 1.37 1.77 1.42 0.95 0.94 0.83 1.06 1.00 0.98 1.07 1.19 1.21 1.15 1.06 1.00 0.95 0.91 0.72 0.76 0.99 1.26
0.37 0.57 0.59 0.61 0.51 0.46 0.47 0.50 nan nan nan nan nan 1.28 1.62 nan nan nan nan nan nan nan 2.70 2.65 1.30 1.04 0.80 0.84 1.05 1.00 0.89 0.91 0.93 1.06 1.15 1.16 1.19 0.99 1.00 1.11 1.09 1.20 1.23
0.76 0.49 0.63 0.53 0.54 0.62 0.66 0.76 0.89 0.72 nan nan nan nan nan nan nan nan nan nan nan nan 4.05 2.02 1.62 1.11 1.04 0.84 1.00 0.92 0.90 0.78 0.58 0.90 0.88 0.99 1.11 1.21 1.23 1.15 1.03 0.97 1.42
0.71 0.68 0.77 0.75 0.73 0.78 0.84 0.88 0.92 1.08 1.23 1.00 nan nan nan nan nan nan nan nan 3.36 nan 2.93 2.87 2.41 1.92 1.43 1.26 1.04 0.98 0.99 0.92 0.85 0.99 1.03 1.49 1.72 1.82 1.67 1.66 1.25 1.60 1.55
0.75 0.64 0.73 0.74 0.73 0.78 0.87 0.77 0.84 0.83 0.86 1.11 1.09 1.14 1.00 nan nan nan nan 2.17 2.90 2.54 2.55 2.63 2.17 1.94 1.51 1.62 1.51 1.72 1.45 1.48 1.41 1.96 2.00 2.19 2.01 2.10 2.10 1.52 1.18 0.96 1.06
0.80 0.83 0.81 1.08 0.96 0.86 0.63 0.79 0.72 0.77 0.86 1.01 1.05 0.94 1.70 1.89 2.53 2.64 2.22 3.11 3.06 2.68 2.31 2.55 2.57 2.80 2.85 2.62 2.54 2.33 2.31 2.42 2.16 2.28 2.25 2.17 2.05 2.23 1.41 2.09 1.80 1.43 1.71
1.38 1.13 0.88 0.97 1.25 1.29 1.34 1.07 0.85 1.20 1.05 1.25 0.96 0.93 nan 1.72 1.88 2.09 2.49 2.26 2.70 2.95 2.37 2.62 2.72 3.56 3.72 4.11 3.33 3.15 2.91 1.71 2.23 2.49 2.67 2.67 2.58 3.26 1.93 1.20 1.86 2.03 1.97
1.46 1.54 1.54 1.66 1.11 1.17 1.40 0.95 1.06 1.08 1.03 0.91 0.71 0.80 nan 1.03 1.31 1.40 1.58 2.18 2.75 2.76 3.18 3.80 3.72 4.12 3.56 3.25 2.88 2.67 2.17 2.67 2.96 2.74 2.16 2.30 2.77 2.39 2.38 1.58 1.68 1.44 2.01
1.24 1.05 1.14 1.13 1.10 1.42 1.28 1.55 1.33 1.28 1.15 1.30 1.13 1.12 1.32 1.75 1.48 1.42 2.30 2.62 2.00 1.84 2.14 2.31 2.15 2.14 2.00 2.38 2.07 2.00 2.16 2.52 2.66 3.62 2.31 2.45 2.37 2.82 2.53 2.21 1.93 2.14 2.04
1.10 1.12 1.10 1.55 1.34 1.07 1.33 1.45 1.22 1.50 1.29 1.42 2.43 1.91 1.04 1.44 2.21 1.52 1.65 2.04 1.62 3.06 2.06 2.25 1.77 1.73 1.97 3.23 4.24 4.15 4.52 4.77 4.49 4.05 3.59 2.27 2.27 2.01 1.93 2.32 1.80 1.73 1.40
1.42 1.16 1.19 1.10 1.84 1.41 1.30 1.63 1.09 1.60 1.95 1.47 1.91 1.32 1.37 1.24 1.39 2.21 2.03 1.60 1.84 1.69 1.42 1.42 1.50 1.57 1.61 1.73 2.56 3.39 3.63 1.43 2.60 1.57 3.08 2.03 2.51 2.58 2.44 2.05 1.90 1.56 1.34
1.13 1.24 1.29 1.34 1.27 1.42 1.51 1.47 1.56 1.20 1.62 1.76 1.60 1.62 1.35 1.35 1.38 1.75 1.60 1.62 1.26 1.32 1.40 1.57 1.57 1.36 1.26 1.47 1.59 1.66 1.34 1.17 2.73 1.33 2.41 1.88 2.21 2.02 1.98 2.01 1.84 1.75 1.40
SL_Ratio
nan nan nan nan nan nan nan nan nan nan nan nan nan nan nan nan nan nan nan nan nan nan 0.0 nan nan nan nan nan nan nan nan nan 2.8 nan nan nan 2.5 2.5 3.3 3.1 3.3 2.7 2.6
nan nan nan nan nan nan nan nan nan nan nan nan nan nan nan nan nan nan nan 5.0 5.0 0.0 nan nan nan nan 3.0 nan nan nan nan nan 2.8 3.7 4.3 3.3 3.1 2.4 2.7 3.0 2.5 nan 3.1
nan nan nan nan nan nan nan nan nan nan nan nan nan nan nan nan nan 5.0 0.0 3.3 2.5 nan nan nan 3.3 3.4 3.2 2.9 2.4 2.6 2.7 2.5 2.7 3.9 4.2 3.8 3.8 3.4 3.7 3.8 3.9 4.0 3.6
nan nan nan nan nan nan nan nan nan nan nan nan nan nan nan 1.8 3.3 2.9 3.3 4.0 5.0 nan 0.0 3.5 3.1 3.1 3.0 2.9 3.0 2.7 3.0 3.5 3.6 3.8 4.1 4.2 4.3 4.6 4.1 5.1 5.7 4.8 4.7
nan nan nan nan nan 2.9 3.2 3.3 3.4 3.7 nan 0.0 5.0 4.1 3.2 3.5 2.5 3.4 3.3 3.3 3.2 3.3 3.3 3.0 3.0 3.0 nan nan 3.2 3.5 3.6 3.8 4.0 4.3 4.7 5.1 5.5 6.2 6.5 5.6 5.8 5.1 5.6
nan 0.0 5.0 3.4 3.8 4.0 4.0 4.1 4.2 4.6 4.6 4.9 5.2 5.3 5.2 2.5 nan nan 3.1 3.2 3.2 3.1 3.4 3.4 3.1 3.4 3.0 nan nan nan nan 4.0 5.2 5.2 5.0 5.8 5.4 5.5 5.5 6.2 6.2 7.1 8.3
4.1 4.6 4.7 4.7 5.0 4.7 4.8 5.4 5.7 5.5 5.3 5.7 5.7 5.6 5.9 5.1 nan nan nan 3.3 3.6 3.3 3.3 3.6 3.4 3.3 3.6 3.4 nan nan nan nan nan 4.0 5.5 5.3 6.0 5.6 5.6 6.8 6.7 6.6 6.3
4.8 5.6 5.9 5.8 6.4 6.2 6.4 6.4 6.1 5.8 6.2 6.4 6.2 6.0 5.8 5.4 nan nan nan 3.4 3.7 3.5 3.4 3.6 3.9 4.0 3.9 3.7 3.6 4.3 4.1 4.0 3.9 4.1 4.5 4.6 4.7 4.9 5.1 5.5 6.1 6.1 6.3
5.1 5.4 5.8 6.3 7.0 6.8 7.9 6.9 7.0 7.2 7.3 7.5 6.8 7.1 6.8 6.1 nan nan 3.5 4.5 4.9 5.0 4.1 4.5 4.6 4.9 nan nan 5.6 6.7 6.3 5.7 nan nan nan nan nan nan nan 5.4 6.8 7.3 7.6
5.3 5.4 5.9 6.5 7.7 7.9 7.1 7.5 7.0 7.1 8.0 7.1 7.4 6.9 4.5 7.2 nan nan nan 4.4 6.2 6.0 6.0 5.2 3.1 4.5 nan nan 5.3 6.6 7.6 6.9 5.7 5.6 5.3 4.8 nan nan nan 6.0 6.2 7.7 7.7
6.9 7.6 7.9 7.6 8.2 7.4 7.1 6.7 7.1 8.0 7.8 7.8 7.9 7.2 7.1 5.9 6.3 nan nan 5.4 6.0 6.3 6.1 6.1 5.6 nan nan nan nan 6.3 6.6 5.7 6.1 6.4 6.4 6.3 6.1 5.9 5.9 6.0 6.2 6.3 7.0
8.0 8.9 8.7 8.5 8.0 7.8 8.3 7.7 7.6 7.7 8.3 8.2 8.2 7.5 6.9 7.0 nan nan nan nan nan 5.9 6.4 6.2 5.9 nan nan nan 4.1 nan nan 4.2 6.0 6.6 6.8 7.1 7.1 7.2 7.1 7.3 7.8 7.8 7.6
9.7 9.4 9.4 8.7 8.7 8.4 8.5 9.2 7.7 7.7 8.3 8.5 8.4 8.5 8.3 7.2 6.7 nan nan nan nan 5.6 5.6 6.2 nan nan nan nan nan nan 3.0 6.0 6.6 7.4 8.1 8.1 7.8 8.0 8.2 8.5 8.6 8.9 9.3
9.1 9.7 9.9 9.7 8.2 8.6 7.8 7.3 7.9 8.1 8.7 8.6 8.7 8.9 9.1 8.9 7.8 6.9 5.9 5.1 4.1 5.9 nan 5.7 nan 5.7 nan nan 5.2 5.7 6.2 6.5 7.0 7.5 8.3 8.2 8.1 8.3 8.5 8.4 8.5 8.4 8.2
9.9 10.6 8.8 8.3 8.2 9.1 9.3 8.4 9.1 8.4 8.3 9.0 8.5 9.1 9.4 9.0 8.0 7.1 7.0 6.5 5.9 6.2 5.5 7.1 7.3 7.2 7.5 7.4 7.4 7.5 7.2 7.2 7.6 7.6 8.6 8.7 8.6 8.5 8.6 8.6 8.6 8.5 8.5
10.7 9.9 9.3 8.9 8.8 9.3 9.7 10.0 nan nan nan nan nan 7.3 6.5 nan nan nan nan nan nan nan 6.6 7.9 9.2 9.0 9.5 9.1 9.1 9.7 9.7 8.6 9.5 9.1 9.2 9.0 9.0 9.1 9.1 8.8 8.6 8.6 9.0
9.4 9.9 9.8 9.3 10.2 10.1 9.9 9.8 9.9 9.2 nan nan nan nan nan nan nan nan nan nan nan nan 7.6 8.8 9.3 9.8 10.0 10.5 10.3 10.6 10.8 10.5 10.7 10.0 9.9 9.5 9.3 9.0 8.6 8.7 8.7 8.8 8.5
9.8 3.0 9.9 10.1 10.1 10.0 10.0 9.9 9.8 9.8 9.7 9.8 nan nan nan nan nan nan nan nan 7.9 nan 8.3 8.5 8.9 9.3 10.2 10.6 10.9 11.3 11.3 11.3 11.2 10.6 10.4 9.4 8.9 8.8 8.7 8.4 8.6 8.3 8.3
10.1 10.2 10.0 10.0 9.9 9.7 9.8 10.2 10.1 10.3 10.3 9.9 9.8 9.6 5.9 nan nan nan nan 8.7 8.4 8.8 8.9 8.9 9.4 9.8 10.3 10.1 10.2 9.8 10.4 10.3 10.3 9.6 9.4 9.1 8.9 8.7 8.5 8.6 8.8 6.7 7.1
10.2 4.1 7.9 10.0 10.3 10.4 10.7 10.7 10.9 10.7 10.8 10.2 10.0 10.1 9.3 8.3 8.7 8.6 9.0 8.4 8.5 8.9 9.2 9.1 9.2 9.0 8.9 9.0 9.0 9.2 9.3 9.2 9.5 9.4 9.4 9.2 9.0 8.6 9.5 8.4 8.4 9.0 8.3
10.4 10.7 3.0 11.0 10.4 10.3 10.2 10.8 11.3 10.6 10.7 10.2 10.3 10.0 nan 9.7 9.6 9.4 9.1 9.4 9.0 8.8 9.2 9.0 9.1 8.5 8.4 8.1 8.5 8.6 8.9 9.9 9.3 9.2 9.0 9.0 8.9 8.4 8.8 9.6 8.6 8.3 8.3
10.7 10.5 10.5 10.5 11.5 11.4 10.8 11.6 11.3 11.2 11.4 11.7 12.3 11.1 nan 10.8 10.6 10.3 10.3 9.5 9.1 9.2 9.0 8.7 8.7 8.4 8.7 8.8 9.0 9.0 9.5 9.0 8.7 9.0 9.7 9.5 9.0 9.1 8.6 9.1 8.8 9.0 8.2
11.6 12.4 12.0 12.1 12.0 4.6 11.5 10.8 11.2 11.2 11.5 10.9 11.0 11.5 11.3 10.1 10.5 10.7 9.6 9.5 10.1 10.4 10.0 9.8 9.8 9.9 9.9 9.5 9.7 9.7 9.7 9.4 9.3 8.5 9.8 9.6 9.7 9.1 8.9 8.9 8.8 8.6 8.3
12.3 12.1 12.0 11.0 11.4 12.3 11.5 11.3 12.0 4.2 11.4 11.1 10.0 10.2 11.4 10.9 10.0 10.9 10.7 10.2 10.5 9.2 9.9 9.8 10.3 10.3 9.8 8.8 8.2 8.2 8.0 7.9 8.2 8.4 8.6 10.0 10.0 9.3 10.0 9.0 9.1 8.5 9.2
11.6 12.2 12.0 12.1 10.6 11.4 11.7 11.0 12.1 11.0 10.6 11.0 10.2 11.2 11.5 11.7 11.0 9.9 10.0 10.4 10.1 10.1 10.4 10.4 10.3 10.1 10.0 9.9 9.2 8.6 7.9 3.0 7.4 3.0 9.1 10.1 9.8 9.8 10.0 9.8 9.6 9.9 9.5
12.2 12.1 12.0 11.9 11.9 11.3 11.0 11.0 10.8 11.6 10.8 10.6 10.8 10.7 11.0 11.0 10.8 10.1 10.3 10.2 10.6 10.4 10.2 10.0 10.0 10.1 10.2 10.1 10.0 4.1 3.0 3.0 8.5 3.0 9.5 10.2 10.1 10.7 10.8 10.7 10.8 10.2 10.3